Time,TemperatureF,DewpointF,PressureIn,WindDirection,WindDirectionDegrees,WindSpeedMPH,WindSpeedGustMPH,Humidity,HourlyPrecipIn,Conditions,Clouds,dailyrainin,SolarRadiationWatts/m^2,SoftwareType,DateUTC
2013-09-25 00:00:00,56.4,53.5,29.93,South,175,0.0,0.0,90,0.00,SCT,SCT,0.00,0.0,WeatherDisplay:10.37,2013-09-25 04:00:00,
2013-09-25 00:05:00,56.3,53.4,29.93,South,175,0.0,0.0,90,0.00,SCT,SCT,0.00,0.0,WeatherDisplay:10.37,2013-09-25 04:05:00,
2013-09-25 00:10:00,56.3,53.4,29.93,South,175,0.0,0.0,90,0.00,SCT,SCT,0.00,0.0,WeatherDisplay:10.37,2013-09-25 04:10:00,
2013-09-25 00:15:00,56.2,53.3,29.93,South,175,0.0,0.0,90,0.00,SCT,SCT,0.00,0.0,WeatherDisplay:10.37,2013-09-25 04:15:00,
2013-09-25 00:20:00,56.1,53.2,29.93,South,175,0.0,0.0,90,0.00,SCT,SCT,0.00,0.0,WeatherDisplay:10.37,2013-09-25 04:20:00,
2013-09-25 00:30:00,55.9,53.0,29.93,South,175,0.0,0.0,90,0.00,SCT,SCT,0.00,0.0,WeatherDisplay:10.37,2013-09-25 04:30:00,
2013-09-25 00:35:00,55.8,52.9,29.93,South,175,0.0,0.0,90,0.00,SCT,SCT,0.00,0.0,WeatherDisplay:10.37,2013-09-25 04:35:00,
2013-09-25 00:40:00,55.7,52.8,29.93,South,175,0.0,0.0,90,0.00,SCT,SCT,0.00,0.0,WeatherDisplay:10.37,2013-09-25 04:40:00,
2013-09-25 00:45:00,55.6,52.7,29.93,South,175,0.0,0.0,90,0.00,SCT,SCT,0.00,0.0,WeatherDisplay:10.37,2013-09-25 04:45:00,
2013-09-25 00:50:00,55.5,52.6,29.92,South,175,0.0,0.0,90,0.00,SCT,SCT,0.00,0.0,WeatherDisplay:10.37,2013-09-25 04:50:00,
2013-09-25 00:55:00,55.4,52.5,29.93,South,175,0.0,0.0,90,0.00,SCT,SCT,0.00,0.0,WeatherDisplay:10.37,2013-09-25 04:55:00,
2013-09-25 01:00:00,55.3,52.4,29.93,South,175,0.0,0.0,90,0.00,SCT,SCT,0.00,0.0,WeatherDisplay:10.37,2013-09-25 05:00:00,
2013-09-25 01:05:00,55.3,52.4,29.93,South,175,0.0,0.0,90,0.00,SCT,SCT,0.00,0.0,WeatherDisplay:10.37,2013-09-25 05:05:00,
2013-09-25 01:10:00,55.2,52.3,29.93,South,175,0.0,0.0,90,0.00,SCT,SCT,0.00,0.0,WeatherDisplay:10.37,2013-09-25 05:10:00,
2013-09-25 01:15:00,55.1,52.2,29.93,South,175,0.0,0.0,90,0.00,SCT,SCT,0.00,0.0,WeatherDisplay:10.37,2013-09-25 05:15:00,
2013-09-25 01:20:00,55.1,52.2,29.93,South,175,0.0,0.0,90,0.00,SCT,SCT,0.00,0.0,WeatherDisplay:10.37,2013-09-25 05:20:00,
2013-09-25 01:25:00,55.0,52.1,29.92,South,175,0.0,0.0,90,0.00,SCT,SCT,0.00,0.0,WeatherDisplay:10.37,2013-09-25 05:25:00,
2013-09-25 01:30:00,54.9,52.0,29.92,South,175,0.0,0.0,90,0.00,SCT,SCT,0.00,0.0,WeatherDisplay:10.37,2013-09-25 05:30:00,
2013-09-25 01:40:00,54.8,51.9,29.92,South,175,0.0,0.0,90,0.00,SCT,SCT,0.00,0.0,WeatherDisplay:10.37,2013-09-25 05:40:00,
2013-09-25 01:45:00,54.7,51.8,29.92,South,175,0.0,0.0,90,0.00,SCT,SCT,0.00,0.0,WeatherDisplay:10.37,2013-09-25 05:45:00,
2013-09-25 01:50:00,54.6,52.0,29.92,South,175,0.0,0.0,91,0.00,SCT,SCT,0.00,0.0,WeatherDisplay:10.37,2013-09-25 05:50:00,
2013-09-25 01:55:00,54.6,51.7,29.92,South,175,0.0,0.0,90,0.00,SCT,SCT,0.00,0.0,WeatherDisplay:10.37,2013-09-25 05:55:00,
2013-09-25 02:00:00,54.5,51.6,29.91,South,175,0.0,0.0,90,0.00,SCT,SCT,0.00,0.0,WeatherDisplay:10.37,2013-09-25 06:00:00,
2013-09-25 02:10:00,54.4,51.8,29.91,South,175,0.0,0.0,91,0.00,SCT,SCT,0.00,0.0,WeatherDisplay:10.37,2013-09-25 06:10:00,
2013-09-25 02:15:00,54.3,51.8,29.91,South,175,0.0,0.0,91,0.00,SCT,SCT,0.00,0.0,WeatherDisplay:10.37,2013-09-25 06:15:00,
2013-09-25 02:20:00,54.3,51.7,29.91,South,175,0.0,0.0,91,0.00,SCT,SCT,0.00,0.0,WeatherDisplay:10.37,2013-09-25 06:20:00,
2013-09-25 02:25:00,54.2,51.6,29.91,South,175,0.0,0.0,91,0.00,SCT,SCT,0.00,0.0,WeatherDisplay:10.37,2013-09-25 06:25:00,
2013-09-25 02:30:00,54.2,51.6,29.91,South,175,0.0,0.0,91,0.00,SCT,SCT,0.00,0.0,WeatherDisplay:10.37,2013-09-25 06:30:00,
2013-09-25 02:35:00,54.2,51.6,29.91,South,175,0.0,0.0,91,0.00,SCT,SCT,0.00,0.0,WeatherDisplay:10.37,2013-09-25 06:35:00,
2013-09-25 02:40:00,54.2,51.6,29.91,South,175,0.0,0.0,91,0.00,SCT,SCT,0.00,0.0,WeatherDisplay:10.37,2013-09-25 06:40:00,
2013-09-25 02:45:00,54.4,51.8,29.92,South,175,0.0,1.0,91,0.00,SCT,SCT,0.00,0.0,WeatherDisplay:10.37,2013-09-25 06:45:00,
2013-09-25 02:50:00,54.5,51.9,29.92,South,175,0.0,0.0,91,0.00,SCT,SCT,0.00,0.0,WeatherDisplay:10.37,2013-09-25 06:50:00,
2013-09-25 03:00:00,54.6,52.0,29.91,South,175,0.0,0.0,91,0.00,SCT,SCT,0.00,0.0,WeatherDisplay:10.37,2013-09-25 07:00:00,
2013-09-25 03:05:00,54.7,52.1,29.91,South,175,0.0,0.0,91,0.00,SCT,SCT,0.00,0.0,WeatherDisplay:10.37,2013-09-25 07:05:00,
2013-09-25 03:10:00,54.8,52.2,29.91,South,175,0.0,0.0,91,0.00,SCT,SCT,0.00,0.0,WeatherDisplay:10.37,2013-09-25 07:10:00,
2013-09-25 03:15:00,54.9,52.3,29.91,South,175,0.0,0.0,91,0.00,SCT,SCT,0.00,0.0,WeatherDisplay:10.37,2013-09-25 07:15:00,
2013-09-25 03:20:00,55.0,52.4,29.91,South,175,0.0,0.0,91,0.00,SCT,SCT,0.00,0.0,WeatherDisplay:10.37,2013-09-25 07:20:00,
2013-09-25 03:25:00,55.1,52.5,29.91,South,175,0.0,0.0,91,0.00,SCT,SCT,0.00,0.0,WeatherDisplay:10.37,2013-09-25 07:25:00,
2013-09-25 03:30:00,55.2,52.6,29.91,South,175,0.0,0.0,91,0.00,SCT,SCT,0.00,0.0,WeatherDisplay:10.37,2013-09-25 07:30:00,
2013-09-25 03:35:00,55.3,52.7,29.91,South,175,0.0,0.0,91,0.00,SCT,SCT,0.00,0.0,WeatherDisplay:10.37,2013-09-25 07:35:00,
2013-09-25 03:40:00,55.5,52.9,29.91,South,175,0.0,0.0,91,0.00,SCT,SCT,0.00,0.0,WeatherDisplay:10.37,2013-09-25 07:40:00,
2013-09-25 03:45:00,55.6,53.0,29.90,South,175,0.0,0.0,91,0.00,SCT,SCT,0.00,0.0,WeatherDisplay:10.37,2013-09-25 07:45:00,
2013-09-25 03:50:00,55.7,53.1,29.90,South,175,0.0,0.0,91,0.00,SCT,SCT,0.00,0.0,WeatherDisplay:10.37,2013-09-25 07:50:00,
2013-09-25 03:55:00,55.9,53.3,29.91,South,175,0.0,1.0,91,0.00,SCT,SCT,0.00,0.0,WeatherDisplay:10.37,2013-09-25 07:55:00,
2013-09-25 04:00:00,56.0,53.4,29.90,South,175,0.0,0.0,91,0.00,SCT,SCT,0.00,0.0,WeatherDisplay:10.37,2013-09-25 08:00:00,
2013-09-25 04:05:00,56.1,53.8,29.90,South,175,0.0,0.0,92,0.00,SCT,SCT,0.00,0.0,WeatherDisplay:10.37,2013-09-25 08:05:00,
2013-09-25 04:10:00,56.2,53.9,29.90,South,175,0.0,0.0,92,0.00,SCT,SCT,0.00,0.0,WeatherDisplay:10.37,2013-09-25 08:10:00,
2013-09-25 04:15:00,56.2,53.9,29.89,South,175,0.0,0.0,92,0.00,SCT,SCT,0.00,0.0,WeatherDisplay:10.37,2013-09-25 08:15:00,
2013-09-25 04:20:00,56.2,53.9,29.90,South,175,0.0,0.0,92,0.00,SCT,SCT,0.00,0.0,WeatherDisplay:10.37,2013-09-25 08:20:00,
2013-09-25 04:25:00,56.2,53.9,29.90,South,175,0.0,0.0,92,0.00,SCT,SCT,0.00,0.0,WeatherDisplay:10.37,2013-09-25 08:25:00,
2013-09-25 04:30:00,56.2,53.9,29.90,South,175,0.0,1.0,92,0.00,SCT,SCT,0.00,0.0,WeatherDisplay:10.37,2013-09-25 08:30:00,
2013-09-25 04:35:00,56.2,53.9,29.90,South,175,0.0,0.0,92,0.00,SCT,SCT,0.00,0.0,WeatherDisplay:10.37,2013-09-25 08:35:00,
2013-09-25 04:40:00,56.2,53.9,29.89,South,175,0.0,0.0,92,0.00,SCT,SCT,0.00,0.0,WeatherDisplay:10.37,2013-09-25 08:40:00,
2013-09-25 04:45:00,56.2,53.9,29.89,South,175,0.0,0.0,92,0.00,SCT,SCT,0.00,0.0,WeatherDisplay:10.37,2013-09-25 08:45:00,
2013-09-25 04:50:00,56.2,53.9,29.89,South,175,0.0,0.0,92,0.00,SCT,SCT,0.00,0.0,WeatherDisplay:10.37,2013-09-25 08:50:00,
2013-09-25 04:55:00,56.2,53.9,29.89,South,175,0.0,0.0,92,0.00,SCT,SCT,0.00,0.0,WeatherDisplay:10.37,2013-09-25 08:55:00,
2013-09-25 05:00:00,56.2,53.9,29.89,South,175,0.0,0.0,92,0.00,SCT,SCT,0.00,0.0,WeatherDisplay:10.37,2013-09-25 09:00:00,
2013-09-25 05:05:00,56.2,53.9,29.89,South,175,0.0,0.0,92,0.00,SCT,SCT,0.00,0.0,WeatherDisplay:10.37,2013-09-25 09:05:00,
2013-09-25 05:10:00,56.2,53.9,29.89,South,175,0.0,0.0,92,0.00,SCT,SCT,0.00,0.0,WeatherDisplay:10.37,2013-09-25 09:10:00,
2013-09-25 05:15:00,56.2,53.9,29.89,South,175,0.0,0.0,92,0.00,SCT,SCT,0.00,0.0,WeatherDisplay:10.37,2013-09-25 09:15:00,
2013-09-25 05:20:00,56.3,54.0,29.89,South,175,0.0,0.0,92,0.00,SCT,SCT,0.00,0.0,WeatherDisplay:10.37,2013-09-25 09:20:00,
2013-09-25 05:25:00,56.4,54.1,29.89,South,175,0.0,0.0,92,0.00,SCT,SCT,0.00,0.0,WeatherDisplay:10.37,2013-09-25 09:25:00,
2013-09-25 05:30:00,56.4,54.1,29.89,South,175,0.0,0.0,92,0.00,SCT,SCT,0.00,0.0,WeatherDisplay:10.37,2013-09-25 09:30:00,
2013-09-25 05:35:00,56.6,54.3,29.89,South,175,0.0,0.0,92,0.00,SCT,SCT,0.00,0.0,WeatherDisplay:10.37,2013-09-25 09:35:00,
2013-09-25 05:40:00,56.6,54.3,29.89,South,175,0.0,0.0,92,0.00,SCT,SCT,0.00,0.0,WeatherDisplay:10.37,2013-09-25 09:40:00,
2013-09-25 05:45:00,56.7,54.4,29.89,South,175,0.0,0.0,92,0.00,SCT,SCT,0.00,0.0,WeatherDisplay:10.37,2013-09-25 09:45:00,
2013-09-25 05:50:00,56.8,54.5,29.90,South,175,0.0,0.0,92,0.00,SCT,SCT,0.00,0.0,WeatherDisplay:10.37,2013-09-25 09:50:00,
2013-09-25 05:55:00,57.0,54.7,29.89,South,175,0.0,0.0,92,0.00,SCT,SCT,0.00,0.0,WeatherDisplay:10.37,2013-09-25 09:55:00,
2013-09-25 06:00:00,57.1,54.8,29.89,South,175,0.0,0.0,92,0.00,SCT,SCT,0.00,0.0,WeatherDisplay:10.37,2013-09-25 10:00:00,
2013-09-25 06:05:00,57.2,54.9,29.90,South,175,0.0,0.0,92,0.00,SCT,SCT,0.00,0.0,WeatherDisplay:10.37,2013-09-25 10:05:00,
2013-09-25 06:10:00,57.2,54.9,29.90,South,175,0.0,1.0,92,0.00,SCT,SCT,0.00,0.0,WeatherDisplay:10.37,2013-09-25 10:10:00,
2013-09-25 06:15:00,57.3,55.0,29.90,South,175,0.0,1.0,92,0.00,SCT,SCT,0.00,0.0,WeatherDisplay:10.37,2013-09-25 10:15:00,
2013-09-25 06:20:00,57.3,55.0,29.90,South,175,0.0,1.0,92,0.00,SCT,SCT,0.00,0.0,WeatherDisplay:10.37,2013-09-25 10:20:00,
2013-09-25 06:25:00,57.3,55.0,29.90,South,175,0.0,0.0,92,0.00,SCT,SCT,0.00,0.0,WeatherDisplay:10.37,2013-09-25 10:25:00,
2013-09-25 06:30:00,57.3,55.0,29.90,South,175,0.0,0.0,92,0.00,SCT,SCT,0.00,0.0,WeatherDisplay:10.37,2013-09-25 10:30:00,
2013-09-25 06:35:00,57.3,55.0,29.90,South,175,0.0,1.0,92,0.00,SCT,SCT,0.00,0.0,WeatherDisplay:10.37,2013-09-25 10:35:00,
2013-09-25 06:40:00,57.3,55.0,29.90,South,175,0.0,0.0,92,0.00,SCT,SCT,0.00,0.0,WeatherDisplay:10.37,2013-09-25 10:40:00,
2013-09-25 06:45:00,57.4,55.1,29.91,South,175,0.0,0.0,92,0.00,SCT,SCT,0.00,0.0,WeatherDisplay:10.37,2013-09-25 10:45:00,
2013-09-25 06:50:00,57.4,55.1,29.91,South,175,0.0,0.0,92,0.00,SCT,SCT,0.00,0.0,WeatherDisplay:10.37,2013-09-25 10:50:00,
2013-09-25 06:55:00,57.5,55.2,29.91,South,175,0.0,2.0,92,0.00,SCT,SCT,0.00,0.0,WeatherDisplay:10.37,2013-09-25 10:55:00,
2013-09-25 07:00:00,57.5,55.2,29.91,South,175,0.0,1.0,92,0.00,SCT,SCT,0.00,0.0,WeatherDisplay:10.37,2013-09-25 11:00:00,
2013-09-25 07:05:00,57.5,55.2,29.91,South,175,0.0,0.0,92,0.00,SCT,SCT,0.00,0.0,WeatherDisplay:10.37,2013-09-25 11:05:00,
2013-09-25 07:10:00,57.5,55.2,29.91,South,175,0.0,1.0,92,0.00,SCT,SCT,0.00,0.0,WeatherDisplay:10.37,2013-09-25 11:10:00,
2013-09-25 07:15:00,57.5,55.2,29.91,South,175,0.0,2.0,92,0.00,SCT,SCT,0.00,0.0,WeatherDisplay:10.37,2013-09-25 11:15:00,
2013-09-25 07:20:00,57.5,55.2,29.91,South,175,0.0,1.0,92,0.00,SCT,SCT,0.00,0.0,WeatherDisplay:10.37,2013-09-25 11:20:00,
2013-09-25 07:25:00,57.4,55.1,29.91,South,175,0.0,0.0,92,0.00,SCT,SCT,0.00,5.0,WeatherDisplay:10.37,2013-09-25 11:25:00,
2013-09-25 07:30:00,57.4,55.1,29.92,South,175,0.0,0.0,92,0.00,SCT,SCT,0.00,9.0,WeatherDisplay:10.37,2013-09-25 11:30:00,
2013-09-25 07:40:00,57.4,55.1,29.91,South,175,0.0,0.0,92,0.00,SCT,SCT,0.00,25.0,WeatherDisplay:10.37,2013-09-25 11:40:00,
2013-09-25 07:45:00,57.5,55.2,29.91,South,175,0.0,1.0,92,0.00,BKN,SCT,0.00,30.0,WeatherDisplay:10.37,2013-09-25 11:45:00,
2013-09-25 07:50:00,57.5,55.2,29.91,South,175,0.0,0.0,92,0.00,BKN,SCT,0.00,30.0,WeatherDisplay:10.37,2013-09-25 11:50:00,
2013-09-25 07:55:00,57.5,55.2,29.91,South,175,0.0,0.0,92,0.00,BKN,SCT,0.00,32.0,WeatherDisplay:10.37,2013-09-25 11:55:00,
2013-09-25 08:00:00,57.7,55.4,29.91,South,175,0.0,1.0,92,0.00,BKN,SCT,0.00,33.0,WeatherDisplay:10.37,2013-09-25 12:00:00,
2013-09-25 08:05:00,57.9,55.6,29.91,South,175,0.0,0.0,92,0.00,BKN,SCT,0.00,40.0,WeatherDisplay:10.37,2013-09-25 12:05:00,
2013-09-25 08:10:00,58.0,55.7,29.91,South,175,0.0,0.0,92,0.00,BKN,SCT,0.00,51.0,WeatherDisplay:10.37,2013-09-25 12:10:00,
2013-09-25 08:15:00,58.1,55.8,29.91,South,175,0.0,0.0,92,0.00,BKN,SCT,0.00,67.0,WeatherDisplay:10.37,2013-09-25 12:15:00,
2013-09-25 08:20:00,58.1,55.8,29.91,South,175,0.0,0.0,92,0.00,BKN,SCT,0.00,79.0,WeatherDisplay:10.37,2013-09-25 12:20:00,
2013-09-25 08:25:00,58.1,55.8,29.91,South,175,0.0,1.0,92,0.00,SCT,SCT,0.00,81.0,WeatherDisplay:10.37,2013-09-25 12:25:00,
2013-09-25 08:30:00,58.2,55.9,29.90,South,175,0.0,2.0,92,0.01,RA,SCT,0.01,104.0,WeatherDisplay:10.37,2013-09-25 12:30:00,
2013-09-25 08:35:00,58.5,56.2,29.90,South,175,0.0,3.0,92,0.00,RA,SCT,0.01,139.0,WeatherDisplay:10.37,2013-09-25 12:35:00,
2013-09-25 08:40:00,58.8,56.4,29.90,South,175,2.0,4.0,92,0.00,SCT,SCT,0.01,199.0,WeatherDisplay:10.37,2013-09-25 12:40:00,
2013-09-25 08:45:00,59.1,57.1,29.90,South,174,1.0,4.0,93,0.00,FEW,SCT,0.01,313.0,WeatherDisplay:10.37,2013-09-25 12:45:00,
2013-09-25 08:50:00,59.5,57.5,29.90,South,171,2.0,4.0,93,0.00,FEW,SCT,0.01,149.0,WeatherDisplay:10.37,2013-09-25 12:50:00,
2013-09-25 08:55:00,59.8,57.8,29.90,SSE,167,1.0,3.0,93,0.00,SCT,SCT,0.01,132.0,WeatherDisplay:10.37,2013-09-25 12:55:00,
2013-09-25 09:00:00,60.0,58.0,29.91,SSE,167,0.0,3.0,93,0.00,SCT,SCT,0.01,141.0,WeatherDisplay:10.37,2013-09-25 13:00:00,
2013-09-25 09:05:00,60.2,58.2,29.91,SSE,167,1.0,3.0,93,0.00,SCT,SCT,0.01,151.0,WeatherDisplay:10.37,2013-09-25 13:05:00,
2013-09-25 09:10:00,60.3,58.2,29.91,SSE,167,1.0,3.0,93,0.00,SCT,SCT,0.01,149.0,WeatherDisplay:10.37,2013-09-25 13:10:00,
2013-09-25 09:15:00,60.4,58.4,29.91,SSE,167,0.0,1.0,93,0.00,SCT,SCT,0.01,144.0,WeatherDisplay:10.37,2013-09-25 13:15:00,
2013-09-25 09:20:00,60.4,58.4,29.91,SSE,167,0.0,1.0,93,0.00,BKN,SCT,0.01,151.0,WeatherDisplay:10.37,2013-09-25 13:20:00,
2013-09-25 09:25:00,60.5,58.2,29.91,SSE,167,0.0,1.0,92,0.00,BKN,SCT,0.01,153.0,WeatherDisplay:10.37,2013-09-25 13:25:00,
2013-09-25 09:30:00,60.6,58.3,29.91,South,191,0.0,1.0,92,0.00,BKN,SCT,0.01,135.0,WeatherDisplay:10.37,2013-09-25 13:30:00,
2013-09-25 09:35:00,60.6,58.3,29.91,WNW,292,0.0,1.0,92,0.00,BKN,SCT,0.01,127.0,WeatherDisplay:10.37,2013-09-25 13:35:00,
2013-09-25 09:40:00,60.6,58.3,29.91,NW,323,0.0,1.0,92,0.00,BKN,SCT,0.01,130.0,WeatherDisplay:10.37,2013-09-25 13:40:00,
2013-09-25 09:45:00,60.8,58.8,29.92,NW,323,0.0,2.0,93,0.00,BKN,SCT,0.01,148.0,WeatherDisplay:10.37,2013-09-25 13:45:00,
2013-09-25 09:50:00,60.9,58.9,29.92,NW,323,0.0,1.0,93,0.00,BKN,SCT,0.01,165.0,WeatherDisplay:10.37,2013-09-25 13:50:00,
2013-09-25 09:55:00,61.0,58.7,29.92,NW,323,0.0,1.0,92,0.00,BKN,SCT,0.01,165.0,WeatherDisplay:10.37,2013-09-25 13:55:00,
2013-09-25 10:00:00,61.2,58.9,29.92,NW,323,0.0,1.0,92,0.00,BKN,SCT,0.01,144.0,WeatherDisplay:10.37,2013-09-25 14:00:00,
2013-09-25 10:05:00,61.4,59.4,29.92,NW,323,0.0,1.0,93,0.00,BKN,SCT,0.01,142.0,WeatherDisplay:10.37,2013-09-25 14:05:00,
2013-09-25 10:10:00,61.5,59.5,29.92,NW,323,0.0,1.0,93,0.00,BKN,SCT,0.01,137.0,WeatherDisplay:10.37,2013-09-25 14:10:00,
2013-09-25 10:15:00,61.6,59.3,29.92,NW,323,0.0,1.0,92,0.00,BKN,SCT,0.01,176.0,WeatherDisplay:10.37,2013-09-25 14:15:00,
2013-09-25 10:20:00,61.6,59.3,29.91,NW,323,0.0,1.0,92,0.00,BKN,SCT,0.01,260.0,WeatherDisplay:10.37,2013-09-25 14:20:00,
2013-09-25 10:25:00,61.8,59.4,29.91,NW,323,0.0,1.0,92,0.00,BKN,SCT,0.01,309.0,WeatherDisplay:10.37,2013-09-25 14:25:00,
2013-09-25 10:30:00,62.0,59.7,29.92,NW,323,0.0,2.0,92,0.00,SCT,SCT,0.01,190.0,WeatherDisplay:10.37,2013-09-25 14:30:00,
2013-09-25 10:35:00,62.2,59.8,29.91,NW,323,0.0,0.0,92,0.00,BKN,SCT,0.01,169.0,WeatherDisplay:10.37,2013-09-25 14:35:00,
2013-09-25 10:40:00,62.4,60.0,29.92,NW,323,0.0,1.0,92,0.00,BKN,SCT,0.01,153.0,WeatherDisplay:10.37,2013-09-25 14:40:00,
2013-09-25 10:45:00,62.6,60.2,29.92,NW,323,0.0,1.0,92,0.00,BKN,SCT,0.01,120.0,WeatherDisplay:10.37,2013-09-25 14:45:00,
2013-09-25 10:50:00,62.7,60.3,29.92,NW,323,0.0,1.0,92,0.00,OVC,SCT,0.01,90.0,WeatherDisplay:10.37,2013-09-25 14:50:00,
2013-09-25 10:55:00,62.7,60.3,29.92,NW,323,0.0,1.0,92,0.00,OVC,SCT,0.01,74.0,WeatherDisplay:10.37,2013-09-25 14:55:00,
2013-09-25 11:00:00,62.6,60.2,29.92,NW,323,0.0,1.0,92,0.00,OVC,SCT,0.01,63.0,WeatherDisplay:10.37,2013-09-25 15:00:00,
2013-09-25 11:05:00,62.7,60.0,29.92,NW,323,0.0,1.0,91,0.00,OVC,SCT,0.01,67.0,WeatherDisplay:10.37,2013-09-25 15:05:00,
2013-09-25 11:10:00,62.7,60.0,29.92,NW,323,0.0,1.0,91,0.00,OVC,SCT,0.01,77.0,WeatherDisplay:10.37,2013-09-25 15:10:00,
2013-09-25 11:15:00,62.8,60.1,29.93,NW,323,0.0,1.0,91,0.00,OVC,SCT,0.01,69.0,WeatherDisplay:10.37,2013-09-25 15:15:00,
2013-09-25 11:20:00,62.8,59.8,29.93,NW,323,0.0,1.0,90,0.00,OVC,SCT,0.01,63.0,WeatherDisplay:10.37,2013-09-25 15:20:00,
2013-09-25 11:25:00,62.9,59.9,29.93,NW,323,0.0,1.0,90,0.00,OVC,SCT,0.01,62.0,WeatherDisplay:10.37,2013-09-25 15:25:00,
2013-09-25 11:30:00,62.9,59.9,29.93,NW,323,0.0,0.0,90,0.00,OVC,SCT,0.01,62.0,WeatherDisplay:10.37,2013-09-25 15:30:00,
2013-09-25 11:35:00,63.0,60.0,29.93,NW,323,0.0,0.0,90,0.00,OVC,SCT,0.01,58.0,WeatherDisplay:10.37,2013-09-25 15:35:00,
2013-09-25 11:40:00,63.0,60.0,29.93,NW,323,0.0,0.0,90,0.00,OVC,SCT,0.01,51.0,WeatherDisplay:10.37,2013-09-25 15:40:00,
2013-09-25 11:45:00,63.1,60.1,29.93,NW,323,0.0,0.0,90,0.00,OVC,SCT,0.01,46.0,WeatherDisplay:10.37,2013-09-25 15:45:00,
2013-09-25 11:50:00,63.1,60.1,29.93,NW,323,0.0,0.0,90,0.00,OVC,SCT,0.01,46.0,WeatherDisplay:10.37,2013-09-25 15:50:00,
2013-09-25 11:55:00,63.1,60.1,29.93,NW,323,0.0,0.0,90,0.00,OVC,SCT,0.01,53.0,WeatherDisplay:10.37,2013-09-25 15:55:00,
2013-09-25 12:00:00,63.1,60.1,29.93,NW,323,0.0,0.0,90,0.00,OVC,SCT,0.01,69.0,WeatherDisplay:10.37,2013-09-25 16:00:00,
2013-09-25 12:05:00,63.1,60.1,29.92,NW,323,0.0,0.0,90,0.01,RA,SCT,0.02,76.0,WeatherDisplay:10.37,2013-09-25 16:05:00,
2013-09-25 12:10:00,63.2,60.2,29.92,NW,323,0.0,1.0,90,0.00,RA,SCT,0.02,79.0,WeatherDisplay:10.37,2013-09-25 16:10:00,
2013-09-25 12:15:00,63.2,60.2,29.92,NW,323,0.0,1.0,90,0.01,RA,SCT,0.03,90.0,WeatherDisplay:10.37,2013-09-25 16:15:00,
2013-09-25 12:20:00,63.2,60.2,29.92,NW,323,1.0,2.0,90,0.00,RA,SCT,0.03,111.0,WeatherDisplay:10.37,2013-09-25 16:20:00,
2013-09-25 12:25:00,63.2,60.2,29.92,NW,323,1.0,3.0,90,0.01,RA,SCT,0.04,142.0,WeatherDisplay:10.37,2013-09-25 16:25:00,
2013-09-25 12:30:00,63.2,60.2,29.91,NW,323,1.0,3.0,90,0.00,RA,SCT,0.04,172.0,WeatherDisplay:10.37,2013-09-25 16:30:00,
2013-09-25 12:35:00,63.2,60.3,29.91,NW,324,2.0,4.0,90,0.01,RA,SCT,0.05,192.0,WeatherDisplay:10.37,2013-09-25 16:35:00,
2013-09-25 12:40:00,63.3,60.3,29.91,NW,325,2.0,3.0,90,0.00,RA,SCT,0.05,244.0,WeatherDisplay:10.37,2013-09-25 16:40:00,
2013-09-25 12:45:00,63.4,60.7,29.91,NW,326,1.0,2.0,91,0.00,BKN,SCT,0.05,301.0,WeatherDisplay:10.37,2013-09-25 16:45:00,
2013-09-25 12:50:00,63.5,60.8,29.91,NNW,329,1.0,3.0,91,0.00,BKN,SCT,0.05,352.0,WeatherDisplay:10.37,2013-09-25 16:50:00,
2013-09-25 12:55:00,63.6,60.9,29.91,NNW,330,0.0,2.0,91,0.00,BKN,SCT,0.05,424.0,WeatherDisplay:10.37,2013-09-25 16:55:00,
2013-09-25 13:00:00,63.9,61.2,29.91,NNW,330,0.0,2.0,91,0.00,SCT,SCT,0.05,464.0,WeatherDisplay:10.37,2013-09-25 17:00:00,
2013-09-25 13:05:00,64.1,61.4,29.91,NNW,330,0.0,2.0,91,0.00,SCT,SCT,0.05,415.0,WeatherDisplay:10.37,2013-09-25 17:05:00,
2013-09-25 13:10:00,64.4,61.7,29.91,NNW,330,0.0,1.0,91,0.00,SCT,SCT,0.05,410.0,WeatherDisplay:10.37,2013-09-25 17:10:00,
2013-09-25 13:15:00,64.7,62.0,29.91,NNW,330,0.0,2.0,91,0.00,SCT,SCT,0.05,480.0,WeatherDisplay:10.37,2013-09-25 17:15:00,
2013-09-25 13:20:00,65.0,62.3,29.91,NNW,330,0.0,2.0,91,0.00,SCT,SCT,0.05,436.0,WeatherDisplay:10.37,2013-09-25 17:20:00,
2013-09-25 13:25:00,65.3,62.2,29.91,NNW,330,1.0,4.0,90,0.00,SCT,SCT,0.05,475.0,WeatherDisplay:10.37,2013-09-25 17:25:00,
2013-09-25 13:30:00,65.6,62.0,29.90,NNW,330,0.0,4.0,88,0.00,SCT,SCT,0.05,580.0,WeatherDisplay:10.37,2013-09-25 17:30:00,
2013-09-25 13:35:00,65.9,61.9,29.90,NNW,330,1.0,4.0,87,0.00,SCT,SCT,0.05,417.0,WeatherDisplay:10.37,2013-09-25 17:35:00,
2013-09-25 13:40:00,66.2,61.6,29.90,NNW,330,1.0,4.0,85,0.00,SCT,SCT,0.05,397.0,WeatherDisplay:10.37,2013-09-25 17:40:00,
2013-09-25 13:45:00,66.5,61.5,29.90,NNW,330,1.0,3.0,84,0.00,SCT,SCT,0.05,497.0,WeatherDisplay:10.37,2013-09-25 17:45:00,
2013-09-25 13:50:00,66.6,60.6,29.90,NNW,330,0.0,3.0,81,0.00,SCT,SCT,0.05,603.0,WeatherDisplay:10.37,2013-09-25 17:50:00,
2013-09-25 13:55:00,66.9,61.6,29.90,NNW,330,1.0,2.0,83,0.00,SCT,SCT,0.05,504.0,WeatherDisplay:10.37,2013-09-25 17:55:00,
2013-09-25 14:00:00,67.4,62.0,29.90,NNW,330,2.0,5.0,83,0.00,SCT,SCT,0.05,376.0,WeatherDisplay:10.37,2013-09-25 18:00:00,
2013-09-25 14:05:00,67.7,62.0,29.89,NNW,330,2.0,5.0,82,0.00,SCT,SCT,0.05,612.0,WeatherDisplay:10.37,2013-09-25 18:05:00,
2013-09-25 14:10:00,68.0,61.3,29.89,NNW,331,1.0,4.0,79,0.00,SCT,SCT,0.05,311.0,WeatherDisplay:10.37,2013-09-25 18:10:00,
2013-09-25 14:15:00,68.3,61.5,29.89,NNW,330,1.0,5.0,79,0.00,SCT,SCT,0.05,313.0,WeatherDisplay:10.37,2013-09-25 18:15:00,
2013-09-25 14:20:00,68.4,61.6,29.89,NNW,331,3.0,5.0,79,0.00,BKN,SCT,0.05,274.0,WeatherDisplay:10.37,2013-09-25 18:20:00,
2013-09-25 14:25:00,68.3,61.5,29.89,NNW,333,0.0,6.0,79,0.00,BKN,SCT,0.05,288.0,WeatherDisplay:10.37,2013-09-25 18:25:00,
2013-09-25 14:30:00,68.2,61.4,29.89,NNW,333,2.0,5.0,79,0.00,BKN,SCT,0.05,374.0,WeatherDisplay:10.37,2013-09-25 18:30:00,
2013-09-25 14:35:00,68.2,61.4,29.89,NNW,335,2.0,6.0,79,0.00,BKN,SCT,0.05,408.0,WeatherDisplay:10.37,2013-09-25 18:35:00,
2013-09-25 14:45:00,68.4,61.3,29.88,NNW,340,0.0,6.0,78,0.00,SCT,SCT,0.05,418.0,WeatherDisplay:10.37,2013-09-25 18:45:00,
2013-09-25 14:50:00,68.6,61.5,29.88,NNW,340,1.0,5.0,78,0.00,SCT,SCT,0.05,390.0,WeatherDisplay:10.37,2013-09-25 18:50:00,
2013-09-25 14:55:00,68.8,61.3,29.89,NNW,340,2.0,5.0,77,0.00,SCT,SCT,0.05,343.0,WeatherDisplay:10.37,2013-09-25 18:55:00,
2013-09-25 15:00:00,68.8,60.9,29.88,NNW,340,1.0,5.0,76,0.00,BKN,SCT,0.05,323.0,WeatherDisplay:10.37,2013-09-25 19:00:00,
2013-09-25 15:05:00,68.8,60.9,29.88,NNW,341,2.0,4.0,76,0.00,BKN,SCT,0.05,381.0,WeatherDisplay:10.37,2013-09-25 19:05:00,
2013-09-25 15:10:00,68.8,60.9,29.88,NNW,343,0.0,5.0,76,0.00,SCT,SCT,0.05,348.0,WeatherDisplay:10.37,2013-09-25 19:10:00,
2013-09-25 15:20:00,68.8,60.6,29.88,NNE,13,2.0,6.0,75,0.00,BKN,SCT,0.05,287.0,WeatherDisplay:10.37,2013-09-25 19:20:00,
2013-09-25 15:25:00,68.7,60.8,29.88,NNE,13,1.0,5.0,76,0.00,BKN,SCT,0.05,255.0,WeatherDisplay:10.37,2013-09-25 19:25:00,
2013-09-25 15:30:00,68.5,60.3,29.88,NNE,12,3.0,6.0,75,0.00,BKN,SCT,0.05,199.0,WeatherDisplay:10.37,2013-09-25 19:30:00,
2013-09-25 15:35:00,68.3,60.5,29.88,NNE,12,2.0,6.0,76,0.00,BKN,SCT,0.05,220.0,WeatherDisplay:10.37,2013-09-25 19:35:00,
2013-09-25 15:40:00,68.3,60.8,29.88,North,8,1.0,5.0,77,0.00,BKN,SCT,0.05,243.0,WeatherDisplay:10.37,2013-09-25 19:40:00,
2013-09-25 15:50:00,68.1,60.2,29.88,North,10,0.0,3.0,76,0.00,BKN,SCT,0.05,278.0,WeatherDisplay:10.37,2013-09-25 19:50:00,
2013-09-25 15:55:00,68.0,60.2,29.88,NNE,15,1.0,6.0,76,0.00,BKN,SCT,0.05,276.0,WeatherDisplay:10.37,2013-09-25 19:55:00,
2013-09-25 16:05:00,67.9,59.7,29.88,NNE,19,2.0,4.0,75,0.00,BKN,SCT,0.05,169.0,WeatherDisplay:10.37,2013-09-25 20:05:00,
2013-09-25 16:10:00,67.9,60.4,29.87,NNE,20,2.0,4.0,77,0.00,BKN,SCT,0.05,199.0,WeatherDisplay:10.37,2013-09-25 20:10:00,
2013-09-25 16:15:00,67.8,60.0,29.87,NNE,20,0.0,4.0,76,0.00,BKN,SCT,0.05,209.0,WeatherDisplay:10.37,2013-09-25 20:15:00,
2013-09-25 16:20:00,67.8,60.3,29.87,NNE,20,0.0,2.0,77,0.00,BKN,SCT,0.05,174.0,WeatherDisplay:10.37,2013-09-25 20:20:00,
2013-09-25 16:25:00,67.7,60.6,29.87,NNE,20,1.0,4.0,78,0.00,BKN,SCT,0.05,155.0,WeatherDisplay:10.37,2013-09-25 20:25:00,
2013-09-25 16:35:00,67.4,60.3,29.87,NNE,20,1.0,4.0,78,0.00,BKN,SCT,0.05,123.0,WeatherDisplay:10.37,2013-09-25 20:35:00,
2013-09-25 16:40:00,67.3,60.6,29.87,NNE,20,0.0,2.0,79,0.00,BKN,SCT,0.05,120.0,WeatherDisplay:10.37,2013-09-25 20:40:00,
2013-09-25 16:45:00,67.3,60.6,29.87,NNE,20,1.0,2.0,79,0.00,BKN,SCT,0.05,114.0,WeatherDisplay:10.37,2013-09-25 20:45:00,
2013-09-25 16:50:00,67.2,60.5,29.87,NNE,20,1.0,2.0,79,0.00,BKN,SCT,0.05,102.0,WeatherDisplay:10.37,2013-09-25 20:50:00,
2013-09-25 16:55:00,67.0,60.3,29.87,NNE,20,1.0,3.0,79,0.00,BKN,SCT,0.05,97.0,WeatherDisplay:10.37,2013-09-25 20:55:00,
2013-09-25 17:00:00,66.9,60.5,29.87,NNE,20,0.0,3.0,80,0.00,BKN,SCT,0.05,98.0,WeatherDisplay:10.37,2013-09-25 21:00:00,
2013-09-25 17:05:00,66.8,60.0,29.87,NNE,20,1.0,4.0,79,0.00,BKN,SCT,0.05,100.0,WeatherDisplay:10.37,2013-09-25 21:05:00,
2013-09-25 17:10:00,66.6,60.2,29.87,NNE,20,0.0,4.0,80,0.00,BKN,SCT,0.05,105.0,WeatherDisplay:10.37,2013-09-25 21:10:00,
2013-09-25 17:20:00,66.5,60.4,29.87,NNE,20,1.0,4.0,81,0.00,BKN,SCT,0.05,63.0,WeatherDisplay:10.37,2013-09-25 21:20:00,
2013-09-25 17:25:00,66.3,60.3,29.87,NNE,20,1.0,4.0,81,0.00,OVC,SCT,0.05,74.0,WeatherDisplay:10.37,2013-09-25 21:25:00,
2013-09-25 17:30:00,66.3,60.3,29.87,NNE,20,0.0,4.0,81,0.00,OVC,SCT,0.05,62.0,WeatherDisplay:10.37,2013-09-25 21:30:00,
2013-09-25 17:35:00,66.2,60.5,29.86,NNE,20,2.0,4.0,82,0.00,BKN,SCT,0.05,90.0,WeatherDisplay:10.37,2013-09-25 21:35:00,
2013-09-25 17:40:00,66.1,60.0,29.86,NNE,25,3.0,6.0,81,0.00,BKN,SCT,0.05,69.0,WeatherDisplay:10.37,2013-09-25 21:40:00,
2013-09-25 17:45:00,65.9,59.9,29.86,NNE,28,1.0,5.0,81,0.00,BKN,SCT,0.05,65.0,WeatherDisplay:10.37,2013-09-25 21:45:00,
2013-09-25 17:50:00,65.8,60.2,29.87,NNE,30,0.0,2.0,82,0.00,BKN,SCT,0.05,79.0,WeatherDisplay:10.37,2013-09-25 21:50:00,
2013-09-25 17:55:00,65.8,60.5,29.86,NNE,30,0.0,2.0,83,0.00,BKN,SCT,0.05,107.0,WeatherDisplay:10.37,2013-09-25 21:55:00,
2013-09-25 18:00:00,65.7,60.7,29.86,NNE,30,1.0,3.0,84,0.00,BKN,SCT,0.05,76.0,WeatherDisplay:10.37,2013-09-25 22:00:00,
2013-09-25 18:05:00,65.6,60.6,29.87,NNE,30,1.0,3.0,84,0.00,BKN,SCT,0.05,70.0,WeatherDisplay:10.37,2013-09-25 22:05:00,
2013-09-25 18:10:00,65.5,60.5,29.86,NNE,17,0.0,3.0,84,0.00,BKN,SCT,0.05,86.0,WeatherDisplay:10.37,2013-09-25 22:10:00,
2013-09-25 18:15:00,65.5,60.8,29.86,North,355,1.0,2.0,85,0.00,SCT,SCT,0.05,84.0,WeatherDisplay:10.37,2013-09-25 22:15:00,
2013-09-25 18:20:00,65.3,60.7,29.87,NW,326,1.0,3.0,85,0.00,SCT,SCT,0.05,86.0,WeatherDisplay:10.37,2013-09-25 22:20:00,
2013-09-25 18:25:00,65.2,60.6,29.86,NW,323,0.0,3.0,85,0.00,SCT,SCT,0.05,67.0,WeatherDisplay:10.37,2013-09-25 22:25:00,
2013-09-25 18:30:00,65.1,60.5,29.87,NW,323,0.0,2.0,85,0.00,,SCT,0.05,26.0,WeatherDisplay:10.37,2013-09-25 22:30:00,
2013-09-25 18:35:00,65.0,60.7,29.87,NW,322,0.0,2.0,86,0.00,,SCT,0.05,21.0,WeatherDisplay:10.37,2013-09-25 22:35:00,
2013-09-25 18:40:00,64.8,60.2,29.87,NW,323,0.0,3.0,85,0.00,BKN,SCT,0.05,25.0,WeatherDisplay:10.37,2013-09-25 22:40:00,
2013-09-25 18:45:00,64.6,60.3,29.87,NW,323,0.0,1.0,86,0.00,BKN,SCT,0.05,25.0,WeatherDisplay:10.37,2013-09-25 22:45:00,
2013-09-25 18:50:00,64.3,59.7,29.88,NW,323,0.0,2.0,85,0.00,BKN,SCT,0.05,21.0,WeatherDisplay:10.37,2013-09-25 22:50:00,
2013-09-25 19:00:00,63.8,59.5,29.88,NW,323,0.0,1.0,86,0.00,SCT,SCT,0.05,26.0,WeatherDisplay:10.37,2013-09-25 23:00:00,
2013-09-25 19:05:00,63.6,59.3,29.88,NW,323,0.0,1.0,86,0.00,SCT,SCT,0.05,21.0,WeatherDisplay:10.37,2013-09-25 23:05:00,
2013-09-25 19:10:00,63.3,59.1,29.88,NW,323,0.0,1.0,86,0.00,SCT,SCT,0.05,11.0,WeatherDisplay:10.37,2013-09-25 23:10:00,
2013-09-25 19:15:00,63.1,59.2,29.89,NW,323,0.0,1.0,87,0.00,SCT,SCT,0.05,0.0,WeatherDisplay:10.37,2013-09-25 23:15:00,
2013-09-25 19:20:00,62.8,58.9,29.89,NW,322,0.0,1.0,87,0.00,SCT,SCT,0.05,0.0,WeatherDisplay:10.37,2013-09-25 23:20:00,
2013-09-25 19:25:00,62.5,58.3,29.89,NW,322,0.0,1.0,86,0.00,SCT,SCT,0.05,0.0,WeatherDisplay:10.37,2013-09-25 23:25:00,
2013-09-25 19:30:00,62.3,58.4,29.89,NW,323,0.0,0.0,87,0.00,SCT,SCT,0.05,0.0,WeatherDisplay:10.37,2013-09-25 23:30:00,
2013-09-25 19:35:00,62.2,58.3,29.89,NW,323,0.0,1.0,87,0.00,SCT,SCT,0.05,0.0,WeatherDisplay:10.37,2013-09-25 23:35:00,
2013-09-25 19:40:00,62.0,58.1,29.89,NW,323,0.0,1.0,87,0.00,SCT,SCT,0.05,0.0,WeatherDisplay:10.37,2013-09-25 23:40:00,
2013-09-25 19:45:00,61.8,57.9,29.89,NW,323,0.0,1.0,87,0.00,SCT,SCT,0.05,0.0,WeatherDisplay:10.37,2013-09-25 23:45:00,
2013-09-25 19:50:00,61.7,57.8,29.89,NW,323,0.0,0.0,87,0.00,SCT,SCT,0.05,0.0,WeatherDisplay:10.37,2013-09-25 23:50:00,
2013-09-25 19:55:00,61.5,57.6,29.89,NW,323,0.0,0.0,87,0.00,SCT,SCT,0.05,0.0,WeatherDisplay:10.37,2013-09-25 23:55:00,
2013-09-25 20:00:00,61.4,57.5,29.89,NW,323,0.0,1.0,87,0.00,SCT,SCT,0.05,0.0,WeatherDisplay:10.37,2013-09-26 00:00:00,
2013-09-25 20:10:00,61.1,57.5,29.89,NW,323,0.0,0.0,88,0.00,SCT,SCT,0.05,0.0,WeatherDisplay:10.37,2013-09-26 00:10:00,
2013-09-25 20:15:00,61.0,57.4,29.89,NW,323,0.0,0.0,88,0.00,SCT,SCT,0.05,0.0,WeatherDisplay:10.37,2013-09-26 00:15:00,
2013-09-25 20:20:00,60.8,57.2,29.89,NW,323,0.0,0.0,88,0.00,SCT,SCT,0.05,0.0,WeatherDisplay:10.37,2013-09-26 00:20:00,
2013-09-25 20:25:00,60.6,57.0,29.89,NW,323,0.0,0.0,88,0.00,SCT,SCT,0.05,0.0,WeatherDisplay:10.37,2013-09-26 00:25:00,
2013-09-25 20:30:00,60.4,56.8,29.89,NW,323,0.0,0.0,88,0.00,SCT,SCT,0.05,0.0,WeatherDisplay:10.37,2013-09-26 00:30:00,
2013-09-25 20:35:00,60.2,56.7,29.90,NW,323,0.0,0.0,88,0.00,SCT,SCT,0.05,0.0,WeatherDisplay:10.37,2013-09-26 00:35:00,
2013-09-25 20:40:00,60.1,56.8,29.90,NW,323,0.0,0.0,89,0.00,SCT,SCT,0.05,0.0,WeatherDisplay:10.37,2013-09-26 00:40:00,
2013-09-25 20:45:00,60.0,56.7,29.90,NW,323,0.0,0.0,89,0.00,SCT,SCT,0.05,0.0,WeatherDisplay:10.37,2013-09-26 00:45:00,
2013-09-25 20:50:00,59.8,56.6,29.90,NW,323,0.0,0.0,89,0.00,SCT,SCT,0.05,0.0,WeatherDisplay:10.37,2013-09-26 00:50:00,
2013-09-25 20:55:00,59.7,56.5,29.90,NW,323,0.0,1.0,89,0.00,SCT,SCT,0.05,0.0,WeatherDisplay:10.37,2013-09-26 00:55:00,
2013-09-25 21:00:00,59.6,56.4,29.90,NW,323,0.0,1.0,89,0.00,SCT,SCT,0.05,0.0,WeatherDisplay:10.37,2013-09-26 01:00:00,
2013-09-25 21:05:00,59.4,56.2,29.90,NW,323,0.0,1.0,89,0.00,SCT,SCT,0.05,0.0,WeatherDisplay:10.37,2013-09-26 01:05:00,
2013-09-25 21:10:00,59.3,56.1,29.90,NW,323,0.0,1.0,89,0.00,SCT,SCT,0.05,0.0,WeatherDisplay:10.37,2013-09-26 01:10:00,
2013-09-25 21:15:00,59.1,55.9,29.90,NW,323,0.0,1.0,89,0.00,SCT,SCT,0.05,0.0,WeatherDisplay:10.37,2013-09-26 01:15:00,
2013-09-25 21:20:00,58.9,55.7,29.90,NW,323,0.0,2.0,89,0.00,SCT,SCT,0.05,0.0,WeatherDisplay:10.37,2013-09-26 01:20:00,
2013-09-25 21:25:00,58.7,55.5,29.90,NW,323,0.0,1.0,89,0.00,SCT,SCT,0.05,0.0,WeatherDisplay:10.37,2013-09-26 01:25:00,
2013-09-25 21:30:00,58.6,55.4,29.90,NW,323,0.0,0.0,89,0.00,SCT,SCT,0.05,0.0,WeatherDisplay:10.37,2013-09-26 01:30:00,
2013-09-25 21:35:00,58.5,55.3,29.90,NW,323,0.0,0.0,89,0.00,SCT,SCT,0.05,0.0,WeatherDisplay:10.37,2013-09-26 01:35:00,
2013-09-25 21:40:00,58.3,55.4,29.90,NW,323,0.0,0.0,90,0.00,SCT,SCT,0.05,0.0,WeatherDisplay:10.37,2013-09-26 01:40:00,
2013-09-25 21:45:00,58.2,55.3,29.90,NW,323,0.0,0.0,90,0.00,SCT,SCT,0.05,0.0,WeatherDisplay:10.37,2013-09-26 01:45:00,
2013-09-25 21:50:00,58.1,55.2,29.90,NW,323,0.0,0.0,90,0.00,SCT,SCT,0.05,0.0,WeatherDisplay:10.37,2013-09-26 01:50:00,
2013-09-25 21:55:00,58.1,55.2,29.90,NW,323,0.0,0.0,90,0.00,SCT,SCT,0.05,0.0,WeatherDisplay:10.37,2013-09-26 01:55:00,
2013-09-25 22:00:00,57.9,54.6,29.90,NW,323,0.0,0.0,89,0.00,SCT,SCT,0.05,0.0,WeatherDisplay:10.37,2013-09-26 02:00:00,
2013-09-25 22:05:00,57.6,54.7,29.90,NW,323,0.0,0.0,90,0.00,SCT,SCT,0.05,0.0,WeatherDisplay:10.37,2013-09-26 02:05:00,
2013-09-25 22:10:00,57.5,54.6,29.90,NW,323,0.0,0.0,90,0.00,SCT,SCT,0.05,0.0,WeatherDisplay:10.37,2013-09-26 02:10:00,
2013-09-25 22:15:00,57.4,54.2,29.90,NW,323,0.0,0.0,89,0.00,SCT,SCT,0.05,0.0,WeatherDisplay:10.37,2013-09-26 02:15:00,
2013-09-25 22:20:00,57.2,54.0,29.90,NW,323,0.0,0.0,89,0.00,SCT,SCT,0.05,0.0,WeatherDisplay:10.37,2013-09-26 02:20:00,
2013-09-25 22:25:00,57.0,54.1,29.90,NW,323,0.0,0.0,90,0.00,SCT,SCT,0.05,0.0,WeatherDisplay:10.37,2013-09-26 02:25:00,
2013-09-25 22:30:00,56.9,54.0,29.90,NW,323,0.0,0.0,90,0.00,SCT,SCT,0.05,0.0,WeatherDisplay:10.37,2013-09-26 02:30:00,
2013-09-25 22:35:00,56.8,53.6,29.90,NW,323,0.0,0.0,89,0.00,SCT,SCT,0.05,0.0,WeatherDisplay:10.37,2013-09-26 02:35:00,
2013-09-25 22:45:00,56.5,53.6,29.90,NW,323,0.0,0.0,90,0.00,SCT,SCT,0.05,0.0,WeatherDisplay:10.37,2013-09-26 02:45:00,
2013-09-25 22:50:00,56.3,53.4,29.90,NW,323,0.0,0.0,90,0.00,SCT,SCT,0.05,0.0,WeatherDisplay:10.37,2013-09-26 02:50:00,
2013-09-25 22:55:00,56.2,53.3,29.90,NW,323,0.0,0.0,90,0.00,SCT,SCT,0.05,0.0,WeatherDisplay:10.37,2013-09-26 02:55:00,
2013-09-25 23:05:00,56.0,53.1,29.90,NW,323,0.0,0.0,90,0.00,SCT,SCT,0.05,0.0,WeatherDisplay:10.37,2013-09-26 03:05:00,
2013-09-25 23:10:00,55.9,53.0,29.90,NW,323,0.0,0.0,90,0.00,SCT,SCT,0.05,0.0,WeatherDisplay:10.37,2013-09-26 03:10:00,
2013-09-25 23:15:00,55.8,53.0,29.90,NW,323,0.0,0.0,90,0.00,SCT,SCT,0.05,0.0,WeatherDisplay:10.37,2013-09-26 03:15:00,
2013-09-25 23:20:00,55.8,52.9,29.90,NW,323,0.0,0.0,90,0.00,SCT,SCT,0.05,0.0,WeatherDisplay:10.37,2013-09-26 03:20:00,
2013-09-25 23:25:00,55.8,52.9,29.91,NW,323,0.0,0.0,90,0.00,SCT,SCT,0.05,0.0,WeatherDisplay:10.37,2013-09-26 03:25:00,
2013-09-25 23:30:00,55.7,52.8,29.91,NW,323,0.0,0.0,90,0.00,SCT,SCT,0.05,0.0,WeatherDisplay:10.37,2013-09-26 03:30:00,
2013-09-25 23:35:00,55.7,52.8,29.91,NW,323,0.0,0.0,90,0.00,SCT,SCT,0.05,0.0,WeatherDisplay:10.37,2013-09-26 03:35:00,
2013-09-25 23:40:00,55.7,52.8,29.91,NW,323,0.0,0.0,90,0.00,SCT,SCT,0.05,0.0,WeatherDisplay:10.37,2013-09-26 03:40:00,
2013-09-25 23:45:00,55.7,52.8,29.91,NW,323,0.0,0.0,90,0.00,SCT,SCT,0.05,0.0,WeatherDisplay:10.37,2013-09-26 03:45:00,
2013-09-25 23:50:00,55.8,52.9,29.91,NW,323,0.0,0.0,90,0.00,SCT,SCT,0.05,0.0,WeatherDisplay:10.37,2013-09-26 03:50:00,
2013-09-25 23:55:00,55.8,52.9,29.91,NW,323,0.0,0.0,90,0.00,SCT,SCT,0.05,0.0,WeatherDisplay:10.37,2013-09-26 03:55:00,